SCP
0 0 0 0 0 0 0 0 0 0 0 0 0 0 0 0 0 0 0 0 0 0 0 0 0 0 0 0 0 0 0 0 0 0 0 0 0 0 0 0 0 0 0 0
0 0 0 0 0 0 0 0 0 0 0 0 0 0 0 0 0 0 0 0 0 0 0 0 0 0 0 0 0 0 0 0 0 0 0 0 0 0 0 0 0 0 0 0
0 0 0 0 0 0 0 0 0 0 0 0 0 0 0 0 0 0 0 0 0 0 0 0 0 0 0 0 0 0 0 0 0 0 0 0 0 0 0 0 0 0 0 0
0 0 0 0 0 0 0 0 0 0 0 0 0 0 0 0 0 0 0 0 0 0 0 0 0 0 0 0 0 0 0 0 0 0 0 0 0 0 0 0 0 0 0 0
0 0 0 0 0 0 0 0 0 0 0 0 0 0 0 0 0 0 0 0 0 0 0 0 0 0 0 0 0 0 0 0 0 0 0 0 0 0 0 0 0 0 0 0
0 0 0 0 0 0 0 0 0 0 0 0 0 0 0 0 0 0 0 0 0 0 0 0 0 0 0 0 0 0 0 0 0 0 0 0 0 0 0 0 0 0 0 0
0 0 0 0 0 0 0 0 0 0 0 0 0 0 0 0 0 0 0 0 0 0 0 0 0 0 0 0 0 0 0 0 0 0 0 0 0 0 0 0 0 0 0 0
0 0 0 0 0 0 0 0 0 0 0 0 0 0 0 0 0 0 0 0 0 0 0 0 0 0 0 0 0 0 0 0 0 0 0 0 0 0 0 0 0 0 0 0
0 0 0 0 0 0 0 0 0 0 0 0 0 0 0 0 0 0 0 0 0 0 0 0 0 0 0 0 0 0 0 0 0 0 0 0 0 0 0 0 0 0 0 0
0 0 0 0 0 0 0 0 0 0 0 0 0 0 0 0 0 0 0 0 0 0 0 0 0 0 0 0 0 0 0 0 0 0 0 0 0 0 0 0 0 0 0 0
0 0 0 0 0 0 0 0 0 0 0 0 0 0 0 0 0 0 0 0 0 0 0 0 0 0 0 0 0 0 0 0 0 0 0 0 0 0 0 0 0 0 0 0
0 0 0 0 0 0 0 0 0 0 0 0 0 0 0 0 0 0 0 0 0 0 0 0 0 0 0 0 0 0 0 0 0 0 0 0 0 0 0 0 0 0 0 0
0 0 0 0 0 0 0 0 0 0 0 0 0 0 0 0 0 0 0 0 0 0 0 0 0 0 0 0 0 0 0 0 0 0 0 0 0 0 0 0 0 0 0 0
0 0 0 0 0 0 0 0 0 0 0 0 0 0 0 0 0 0 0 0 0 0 0 0 0 0 0 0 0 0 0 0 0 0 0 0 0 0 0 0 0 0 0 0
0 0 0 0 0 0 0 0 0 0 0 0 0 0 0 0 0 0 0 0 0 0 0 0 0 0 0 0 0 0 0 0 0 0 0 0 0 0 0 0 0 0 0 0
0 0 0 0 0 0 0 0 0 0 0 0 0 0 0 0 0 0 0 0 0 0 0 0 0 0 0 0 0 0 0 0 0 0 0 0 0 0 0 0 0 0 0 0
0 0 0 0 0 0 0 0 0 0 0 0 0 0 0 0 0 0 0 0 0 0 0 0 0 0 0 0 0 0 0 0 0 0 0 0 0 0 0 0 0 0 0 0
0 0 0 0 0 0 0 0 0 0 0 0 0 0 0 0 0 0 0 0 0 0 0 0 0 0 0 0 0 0 0 0 0 0 0 0 0 0 0 0 0 0 0 0
0 0 0 0 0 0 0 0 0 0 0 0 0 0 0 0 0 0 0 0 0 0 0 0 0 0 0 0 0 0 0 0 0 0 0 0 0 0 0 0 0 0 0 0
0 0 0 0 0 0 0 0 0 0 0 0 0 0 0 0 0 0 0 0 0 0 0 0 0 0 0 0 0 0 0 0 0 0 0 0 0 0 0 0 0 0 0 0
0 0 0 0 0 0 0 0 0 0 0 0 0 0 0 0 0 0 0 0 0 0 0 0 0 0 0 0 0 0 0 0 0 0 0 0 0 0 0 0 0 0 0 0
0 0 0 0 0 0 0 0 0 0 0 0 0 0 0 0 0 0 0 0 0 0 0 0 0 0 0 0 0 0 0 0 0 0 0 0 0 0 0 0 0 0 0 0
0 0 0 0 0 0 0 0 0 0 0 0 0 0 0 0 0 0 0 0 0 0 0 0 0 0 0 0 0 0 0 0 0 0 0 0 0 0 0 0 0 0 0 0
0 0 0 0 0 0 0 0 0 0 0 0 0 0 0 0 0 0 0 0 0 0 0 0 0 0 0 0 0 0 0 0 0 0 0 0 0 0 0 0 0 0 0 0
0 0 0 0 0 0 0 0 0 0 0 0 0 0 0 0 0 0 0 0 0 0 0 0 0 0 0 0 0 0 0 0 0 0 0 0 0 0 0 0 0 0 0 0
0 0 0 0 0 0 0 0 0 0 0 0 0 0 0 0 0 0 0 0 0 0 0 0 0 0 0 0 0 0 0 0 0 0 0 0 0 0 0 0 0 0 0 0
0 0 0 0 0 0 0 0 0 0 0 0 0 0 0 0 0 0 0 0 0 0 0 0 0 0 0 0 0 0 0 0 0 0 0 0 0 0 0 0 0 0 0 -0
Wind_Speed
10 11 10 12 12 11 12 12 14 15 16 15 6 4 5 6 7 7 7 6 5 5 6 7 7 6 6 7 7 6 6 7 8 8 7 7 7 8 8 9 10 9 10 10
9 10 12 16 16 14 14 14 14 15 14 3 4 4 6 7 8 9 7 6 7 8 8 8 7 7 7 7 7 7 8 9 9 8 7 7 8 9 9 10 9 9 10 10
5 6 10 12 11 9 6 5 6 7 5 4 4 5 6 8 9 7 8 9 9 9 8 7 7 7 7 7 7 8 9 10 9 8 8 8 9 9 10 10 10 10 10 10
4 5 9 9 3 1 1 5 6 6 3 5 5 5 6 7 6 8 10 10 9 8 7 7 7 8 8 8 8 9 10 10 9 8 8 9 9 10 10 9 9 9 10 10
3 4 10 9 4 2 1 4 4 4 5 7 7 7 6 6 9 9 10 9 8 6 6 7 8 8 8 9 9 10 10 10 8 8 9 9 10 10 10 9 9 8 8 9
4 4 8 3 3 3 2 2 6 7 7 8 8 8 6 8 10 10 9 8 7 7 7 8 9 9 9 10 10 11 10 9 8 8 9 10 11 10 9 8 9 8 8 8
5 6 10 2 3 1 1 1 3 5 6 6 6 6 9 10 9 9 8 8 7 7 7 8 9 10 11 11 11 10 10 9 9 9 9 10 10 9 9 8 8 8 9 8
6 6 9 2 2 1 4 5 6 6 6 7 8 9 10 9 9 8 7 7 8 7 8 9 9 10 12 12 11 10 10 10 10 9 9 9 10 10 8 8 9 9 8 8
6 7 2 2 2 4 5 5 5 6 7 7 8 9 9 8 7 7 8 8 7 8 10 10 10 10 13 13 11 11 11 10 10 10 9 9 9 10 9 7 7 7 7 7
5 5 6 7 7 6 7 6 7 6 7 6 7 7 7 6 7 7 8 8 8 10 12 12 11 10 11 12 12 12 12 11 9 9 10 9 7 7 7 7 7 7 7 7
9 8 8 5 6 8 8 7 7 7 6 6 6 6 6 6 8 8 8 8 8 10 12 14 12 11 11 12 12 12 11 10 9 9 10 9 8 8 9 8 9 10 7 7
8 5 5 6 7 8 8 7 6 6 6 6 5 6 7 7 7 8 9 9 10 11 12 13 13 13 12 11 11 11 10 9 8 8 8 9 10 10 13 15 19 21 19 16
4 5 5 7 6 6 5 6 5 5 5 6 6 7 8 8 7 9 11 12 12 13 13 14 14 14 12 10 9 10 11 11 9 9 10 10 9 10 11 12 15 18 19 19
4 4 5 5 6 6 5 5 4 5 6 7 7 7 7 9 10 11 12 12 13 15 15 14 13 13 11 10 10 10 10 13 13 10 10 10 10 10 10 11 11 8 11 16
3 3 5 6 6 6 5 4 5 6 7 8 7 8 9 10 12 12 13 13 14 14 13 12 14 15 12 11 11 11 10 9 9 10 10 10 10 10 10 10 10 9 7 8
4 5 6 6 6 6 5 5 6 7 8 8 9 9 10 11 12 14 14 12 12 14 14 14 15 14 12 11 10 9 9 18 18 12 10 10 10 10 10 10 10 9 8 6
3 5 5 5 6 7 6 6 7 8 8 9 10 11 11 12 13 14 13 11 12 14 13 13 15 13 10 9 10 9 9 12 19 14 10 10 10 10 10 10 10 9 8 7
4 5 5 6 6 7 8 8 8 9 9 10 11 11 11 12 14 15 15 14 13 13 12 12 13 12 10 10 9 9 9 10 10 11 11 11 11 10 10 10 10 10 7 6
5 6 6 7 7 7 8 8 9 9 10 10 11 11 11 12 13 14 13 13 15 17 14 10 19 16 11 12 15 8 9 11 11 11 11 15 14 10 10 10 9 8 6 5
6 6 7 8 8 8 9 10 10 11 10 9 10 11 13 13 11 12 13 14 12 12 12 15 14 10 9 11 17 9 10 12 13 12 12 11 11 10 9 9 8 7 5 4
7 8 9 9 10 10 10 10 10 12 11 9 10 12 14 14 12 11 12 14 12 10 12 19 11 8 9 13 18 11 11 12 12 12 11 11 10 10 9 8 7 6 4 4
8 8 10 10 11 11 9 8 9 11 11 11 11 11 12 14 12 11 11 11 12 17 13 9 8 14 20 23 12 11 11 12 11 11 10 10 10 9 8 8 7 5 4 3
9 9 9 10 11 11 11 9 10 10 12 12 12 12 13 13 10 11 13 9 8 17 14 9 17 27 30 17 10 10 11 12 11 11 10 9 9 9 8 7 5 3 3 2
10 10 10 10 10 11 14 14 11 10 11 12 11 12 12 11 9 8 9 15 20 22 12 16 26 28 26 11 9 10 11 11 11 10 10 9 8 7 6 5 4 2 2 2
10 10 10 10 10 10 12 12 10 9 10 9 10 10 8 7 9 9 8 10 17 20 11 15 24 25 16 10 10 11 10 11 12 11 9 8 7 6 5 4 2 1 1 2
10 10 10 10 9 9 8 7 8 8 7 9 8 6 6 6 7 8 8 10 12 18 13 10 12 15 11 11 11 12 11 12 11 9 8 7 7 6 4 3 1 1 1 2
10 9 8 8 7 7 7 7 8 8 7 8 9 7 6 7 7 8 10 9 9 9 9 9 10 10 11 11 11 11 11 10 9 8 7 6 5 4 3 2 0 1 2 3
Wind_Direction
273 288 296 290 280 270 260 258 264 274 282 292 325 36 27 9 353 333 314 310 326 329 320 315 315 318 321 316 311 307 303 296 287 283 283 283 282 279 274 267 260 252 247 244
275 278 279 277 270 264 262 259 261 273 279 301 70 36 12 353 330 310 314 334 337 326 317 314 317 318 317 310 307 309 303 293 286 285 284 281 279 278 275 270 265 258 251 247
277 297 303 275 261 246 236 245 264 274 294 28 22 14 352 324 308 323 343 337 323 315 314 317 318 317 311 304 307 307 300 294 291 287 284 281 280 280 275 271 265 259 254 247
279 300 252 250 293 142 280 291 294 297 5 36 9 345 320 309 339 345 334 324 318 318 320 318 315 311 305 305 307 301 296 293 291 289 286 284 282 279 276 271 264 260 256 249
250 264 276 276 293 36 9 296 334 22 21 352 338 330 315 343 354 333 323 319 318 321 322 319 313 308 308 305 299 295 293 292 293 293 291 289 286 282 278 275 270 264 259 252
214 228 253 284 81 61 27 282 33 16 349 340 347 327 310 339 330 322 322 322 325 326 323 314 307 310 308 300 296 294 293 294 298 298 294 292 287 286 285 280 276 273 266 255
229 239 260 283 137 110 240 285 1 350 344 347 334 301 308 324 323 320 320 324 324 321 313 303 304 306 300 297 296 296 300 301 300 296 293 292 291 290 289 287 284 280 274 265
198 221 252 140 135 252 300 339 353 1 356 338 319 313 317 320 322 325 325 321 317 312 303 300 302 302 300 298 299 302 302 299 296 294 294 295 292 291 288 288 289 286 282 278
205 222 264 128 314 324 356 356 2 352 335 325 317 315 319 320 321 318 311 307 306 303 301 299 299 300 300 302 306 307 303 299 297 296 293 290 290 293 294 290 287 286 281 281
281 284 317 325 331 357 12 1 346 336 329 326 316 315 316 314 309 304 300 300 302 303 301 301 301 301 301 306 307 304 302 300 296 297 296 292 288 287 288 285 283 283 281 281
272 285 297 308 358 357 351 344 335 331 328 322 313 306 304 301 296 295 298 297 298 298 299 302 307 307 304 302 303 300 297 295 296 294 294 294 289 285 284 272 273 281 276 267
271 309 321 324 341 343 338 331 328 325 317 313 303 294 291 287 288 293 298 300 302 301 301 303 304 301 300 299 299 301 302 300 297 295 294 292 293 292 284 282 290 288 283 277
305 339 324 315 324 336 324 316 316 310 299 296 291 284 286 289 292 295 297 300 301 301 299 299 298 298 300 305 308 304 300 300 299 295 294 293 292 293 296 296 291 290 288 286
344 336 309 314 316 315 306 303 301 293 285 279 280 285 289 291 291 292 293 294 295 295 294 294 297 300 305 306 302 296 295 298 299 293 291 290 290 289 290 293 297 291 287 287
319 320 299 299 297 292 288 286 287 283 282 283 286 288 289 290 291 292 292 292 291 291 293 298 300 300 300 298 294 292 294 292 291 288 287 286 286 286 285 284 284 286 284 283
312 306 295 292 292 293 290 284 278 278 281 284 288 287 287 286 288 290 290 291 297 300 299 296 294 295 297 296 294 294 293 295 298 294 290 289 287 286 285 285 285 283 280 274
285 288 295 300 300 299 292 282 277 281 285 287 288 289 290 290 292 293 295 296 292 289 291 292 293 294 292 292 294 293 291 293 296 295 289 288 288 288 286 284 283 281 274 267
249 263 275 279 282 289 290 287 284 284 285 284 287 288 289 293 297 298 298 299 298 294 290 287 289 294 292 292 292 289 290 290 290 290 290 289 288 285 284 282 283 283 278 271
264 270 275 277 278 281 283 285 286 283 282 283 284 287 288 289 289 292 298 302 302 301 299 290 299 304 295 293 300 292 291 292 292 291 290 290 291 287 286 285 284 281 273 258
276 277 278 278 277 274 275 277 278 280 280 280 284 289 291 290 289 293 296 293 288 286 291 297 299 294 294 295 303 295 292 293 293 292 291 289 289 289 289 288 285 278 265 251
271 275 276 275 274 270 267 271 278 283 285 282 282 284 288 290 290 291 294 296 294 290 295 303 306 300 301 303 306 299 295 293 292 292 291 291 291 291 291 289 285 274 261 247
267 269 270 271 273 275 273 271 275 281 286 286 283 282 285 289 291 288 278 283 293 300 304 299 298 303 308 311 304 298 296 294 293 291 290 291 292 295 295 291 285 274 256 238
267 269 274 277 278 280 283 281 278 279 280 281 281 281 281 283 286 290 294 292 293 303 307 297 304 310 313 313 303 300 297 295 294 292 292 294 294 293 291 290 285 274 249 226
271 272 272 274 277 280 282 281 275 270 270 272 272 271 274 281 282 272 275 297 306 308 305 303 310 313 316 311 302 299 296 295 294 293 294 294 293 293 293 292 286 267 234 196
267 267 268 268 268 270 272 275 276 274 272 272 269 266 263 264 276 289 293 296 303 308 304 306 310 312 312 302 300 298 299 296 296 298 297 298 300 300 297 291 281 248 182 159
268 267 266 261 260 266 269 272 274 274 274 277 278 274 273 275 281 290 293 294 295 303 305 303 303 306 304 301 301 300 300 301 302 300 300 301 301 302 301 296 273 200 152 140
272 270 271 272 267 261 261 263 267 271 270 274 282 282 280 285 287 289 292 294 296 297 298 300 302 302 302 302 302 301 302 302 303 304 304 303 304 304 302 294 273 132 130 131